,,,PA_Meas_PMT16A,,PR_Meas_QMR101_102,,RH_Meas_QMH101,,SR_Meas_QMS101,,TA_Meas_QMH101,,GenWind,,GenWind,
date,time,status,PA,status,PR,status,RH,status,SR,status,TA,status,DirAvg,status,SpdAvg,
2010-07-12, 00:00:05,VALID,1001.89,VALID,0,VALID,93.1729,VALID,0,VALID,24.0116,VALID,8,VALID,0,
2010-07-12, 00:01:05,VALID,1001.88,VALID,0,VALID,93.1805,VALID,0,VALID,24.0525,VALID,8,VALID,0,
2010-07-12, 00:02:05,VALID,1001.89,VALID,0,VALID,93.1805,VALID,0,VALID,24.0329,VALID,8,VALID,0.227734,
2010-07-12, 00:03:05,VALID,1001.88,VALID,0,VALID,93.1653,VALID,0,VALID,23.9939,VALID,8,VALID,0.467187,
2010-07-12, 00:04:05,VALID,1001.86,VALID,0,VALID,93.2111,VALID,0,VALID,23.9939,VALID,8,VALID,0.419141,
2010-07-12, 00:05:05,VALID,1001.81,VALID,0,VALID,93.2034,VALID,0,VALID,23.9531,VALID,8,VALID,0.346875,
2010-07-12, 00:06:05,VALID,1001.78,VALID,0,VALID,93.2111,VALID,0,VALID,23.9336,VALID,8,VALID,0,
2010-07-12, 00:07:05,VALID,1001.76,VALID,0,VALID,93.2492,VALID,0,VALID,23.9549,VALID,8,VALID,0,
2010-07-12, 00:08:05,VALID,1001.71,VALID,0,VALID,93.2645,VALID,0,VALID,23.9744,VALID,8,VALID,0,
2010-07-12, 00:09:05,VALID,1001.66,VALID,0,VALID,93.3026,VALID,0,VALID,23.9549,VALID,8,VALID,0,
2010-07-12, 00:10:05,VALID,1001.68,VALID,0,VALID,93.3103,VALID,0,VALID,23.9549,VALID,8,VALID,0,
2010-07-12, 00:11:05,VALID,1001.65,VALID,0,VALID,93.3103,VALID,0,VALID,23.9549,VALID,8,VALID,0,
2010-07-12, 00:12:05,VALID,1001.65,VALID,0,VALID,93.3026,VALID,0,VALID,23.914,VALID,8,VALID,0,
2010-07-12, 00:13:05,VALID,1001.67,VALID,0,VALID,93.3255,VALID,0,VALID,23.9159,VALID,8,VALID,0,
2010-07-12, 00:14:05,VALID,1001.66,VALID,0,VALID,93.3408,VALID,0,VALID,23.9159,VALID,8,VALID,0,
2010-07-12, 00:15:05,VALID,1001.65,VALID,0,VALID,93.3789,VALID,0,VALID,23.9354,VALID,58,VALID,0,
2010-07-12, 00:16:05,VALID,1001.66,VALID,0,VALID,93.3866,VALID,0,VALID,23.9159,VALID,76,VALID,0,
2010-07-12, 00:17:05,VALID,1001.65,VALID,0,VALID,93.4018,VALID,0,VALID,23.8963,VALID,76,VALID,0,
2010-07-12, 00:18:05,VALID,1001.62,VALID,0,VALID,93.3942,VALID,0,VALID,23.8963,VALID,76,VALID,0,
2010-07-12, 00:19:05,VALID,1001.64,VALID,0,VALID,93.4171,VALID,0,VALID,23.8768,VALID,90,VALID,0,
2010-07-12, 00:20:05,VALID,1001.66,VALID,0,VALID,93.4247,VALID,0.112286,VALID,23.875,VALID,90,VALID,0,
2010-07-12, 00:21:05,VALID,1001.68,VALID,0,VALID,93.44,VALID,0,VALID,23.8555,VALID,91,VALID,0,
2010-07-12, 00:22:05,VALID,1001.66,VALID,0,VALID,93.4705,VALID,0,VALID,23.8555,VALID,91,VALID,0,
2010-07-12, 00:23:05,VALID,1001.66,VALID,0,VALID,93.4705,VALID,0,VALID,23.8342,VALID,91,VALID,0,
2010-07-12, 00:24:05,VALID,1001.67,VALID,0,VALID,93.4628,VALID,0,VALID,23.836,VALID,91,VALID,0,
2010-07-12, 00:25:05,VALID,1001.66,VALID,0,VALID,93.4781,VALID,0,VALID,23.836,VALID,91,VALID,0,
2010-07-12, 00:26:05,VALID,1001.66,VALID,0,VALID,93.4781,VALID,0,VALID,23.8165,VALID,91,VALID,0,
2010-07-12, 00:27:05,VALID,1001.66,VALID,0,VALID,93.501,VALID,0,VALID,23.8165,VALID,91,VALID,0,
2010-07-12, 00:28:05,VALID,1001.64,VALID,0,VALID,93.4934,VALID,0,VALID,23.8165,VALID,70,VALID,0,
2010-07-12, 00:29:05,VALID,1001.61,VALID,0,VALID,93.4857,VALID,0,VALID,23.7775,VALID,56,VALID,0,
2010-07-12, 00:30:05,VALID,1001.61,VALID,0,VALID,93.4934,VALID,0,VALID,23.7775,VALID,44,VALID,0,
2010-07-12, 00:31:05,VALID,1001.64,VALID,0,VALID,93.4781,VALID,0,VALID,23.7579,VALID,41,VALID,0.959766,
2010-07-12, 00:32:05,VALID,1001.59,VALID,0,VALID,93.4934,VALID,0,VALID,23.7384,VALID,39,VALID,1.07031,
2010-07-12, 00:33:05,VALID,1001.59,VALID,0,VALID,93.4857,VALID,0,VALID,23.7402,VALID,34,VALID,0.908984,
2010-07-12, 00:34:05,VALID,1001.61,VALID,0,VALID,93.4934,VALID,0,VALID,23.7189,VALID,34,VALID,1.03789,
2010-07-12, 00:35:05,VALID,1001.58,VALID,0,VALID,93.4552,VALID,0,VALID,23.7207,VALID,34,VALID,0.725,
2010-07-12, 00:36:05,VALID,1001.55,VALID,0,VALID,93.4857,VALID,0,VALID,23.7012,VALID,34,VALID,0.603906,
2010-07-12, 00:37:05,VALID,1001.53,VALID,0,VALID,93.4705,VALID,0,VALID,23.6799,VALID,34,VALID,0.623047,
2010-07-12, 00:38:05,VALID,1001.5,VALID,0,VALID,93.4705,VALID,0,VALID,23.7012,VALID,34,VALID,0.753125,
2010-07-12, 00:39:05,VALID,1001.5,VALID,0,VALID,93.4857,VALID,0,VALID,23.7207,VALID,40,VALID,0.948438,
2010-07-12, 00:40:05,VALID,1001.47,VALID,0,VALID,93.4857,VALID,0,VALID,23.7402,VALID,55,VALID,0.798047,
2010-07-12, 00:41:05,VALID,1001.49,VALID,0,VALID,93.4934,VALID,0,VALID,23.7402,VALID,84,VALID,0.855859,
2010-07-12, 00:42:05,VALID,1001.51,VALID,0,VALID,93.4781,VALID,0,VALID,23.7402,VALID,106,VALID,0.973047,
2010-07-12, 00:43:05,VALID,1001.51,VALID,0,VALID,93.5086,VALID,0,VALID,23.7597,VALID,105,VALID,1.23711,
2010-07-12, 00:44:05,VALID,1001.52,VALID,0,VALID,93.4476,VALID,0,VALID,23.7793,VALID,106,VALID,0.796875,
2010-07-12, 00:45:05,VALID,1001.54,VALID,0,VALID,93.4323,VALID,0,VALID,23.7597,VALID,115,VALID,0.837891,
2010-07-12, 00:46:05,VALID,1001.51,VALID,0,VALID,93.3789,VALID,0,VALID,23.7597,VALID,116,VALID,0.617578,
2010-07-12, 00:47:05,VALID,1001.52,VALID,0,VALID,93.3484,VALID,0,VALID,23.7402,VALID,116,VALID,0.588672,
2010-07-12, 00:48:05,VALID,1001.51,VALID,0,VALID,93.3255,VALID,0,VALID,23.7402,VALID,116,VALID,0.360547,
2010-07-12, 00:49:05,VALID,1001.54,VALID,0,VALID,93.2721,VALID,0,VALID,23.7207,VALID,116,VALID,0.405859,
2010-07-12, 00:50:05,VALID,1001.53,VALID,0,VALID,93.2797,VALID,0,VALID,23.7207,VALID,105,VALID,0.612109,
2010-07-12, 00:51:05,VALID,1001.5,VALID,0,VALID,93.2492,VALID,0,VALID,23.7012,VALID,64,VALID,0.742188,
2010-07-12, 00:52:05,VALID,1001.49,VALID,0,VALID,93.2416,VALID,0,VALID,23.6817,VALID,59,VALID,0.805469,
2010-07-12, 00:53:05,VALID,1001.53,VALID,0,VALID,93.2263,VALID,0,VALID,23.6622,VALID,58,VALID,0.804688,
2010-07-12, 00:54:05,VALID,1001.48,VALID,0,VALID,93.234,VALID,0,VALID,23.6409,VALID,58,VALID,0.803125,
2010-07-12, 00:55:05,VALID,1001.46,VALID,0,VALID,93.2492,VALID,0,VALID,23.6817,VALID,62,VALID,0.735547,
2010-07-12, 00:56:05,VALID,1001.44,VALID,0,VALID,93.3179,VALID,0,VALID,23.6622,VALID,76,VALID,0.795703,
2010-07-12, 00:57:05,VALID,1001.42,VALID,0,VALID,93.3255,VALID,0,VALID,23.7012,VALID,90,VALID,0.706641,
2010-07-12, 00:58:05,VALID,1001.38,VALID,0,VALID,93.3637,VALID,0,VALID,23.6817,VALID,97,VALID,0.703125,
2010-07-12, 00:59:05,VALID,1001.38,VALID,0,VALID,93.3713,VALID,0,VALID,23.6817,VALID,104,VALID,0.60625,
2010-07-12, 01:00:05,VALID,1001.35,VALID,0,VALID,93.3713,VALID,0,VALID,23.7012,VALID,104,VALID,0.562109,
2010-07-12, 01:01:05,VALID,1001.3,VALID,0,VALID,93.4094,VALID,0,VALID,23.7012,VALID,104,VALID,0.496484,
2010-07-12, 01:02:05,VALID,1001.32,VALID,0,VALID,93.4094,VALID,0,VALID,23.6817,VALID,104,VALID,0.495313,
2010-07-12, 01:03:05,VALID,1001.32,VALID,0,VALID,93.4476,VALID,0,VALID,23.7402,VALID,104,VALID,0.41875,
2010-07-12, 01:04:05,VALID,1001.35,VALID,0,VALID,93.4628,VALID,0,VALID,23.7402,VALID,104,VALID,0.340234,
2010-07-12, 01:05:05,VALID,1001.31,VALID,0,VALID,93.4781,VALID,0,VALID,23.7402,VALID,104,VALID,0,
2010-07-12, 01:06:05,VALID,1001.29,VALID,0,VALID,93.4781,VALID,0,VALID,23.7207,VALID,104,VALID,0,
2010-07-12, 01:07:05,VALID,1001.33,VALID,0,VALID,93.501,VALID,0,VALID,23.7402,VALID,104,VALID,0,
2010-07-12, 01:08:05,VALID,1001.31,VALID,0,VALID,93.5086,VALID,0,VALID,23.7402,VALID,104,VALID,0,
2010-07-12, 01:09:05,VALID,1001.28,VALID,0,VALID,93.4934,VALID,0,VALID,23.7402,VALID,104,VALID,0,
2010-07-12, 01:10:05,VALID,1001.25,VALID,0,VALID,93.4934,VALID,0,VALID,23.7207,VALID,104,VALID,0,
2010-07-12, 01:11:05,VALID,1001.24,VALID,0,VALID,93.5239,VALID,0,VALID,23.7207,VALID,104,VALID,0,
2010-07-12, 01:12:05,VALID,1001.19,VALID,0,VALID,93.5239,VALID,0,VALID,23.7207,VALID,104,VALID,0,
2010-07-12, 01:13:05,VALID,1001.19,VALID,0,VALID,93.5315,VALID,0,VALID,23.7207,VALID,104,VALID,0,
2010-07-12, 01:14:05,VALID,1001.17,VALID,0,VALID,93.5391,VALID,0,VALID,23.6994,VALID,104,VALID,0,
2010-07-12, 01:15:05,VALID,1001.15,VALID,0,VALID,93.5544,VALID,0,VALID,23.7207,VALID,104,VALID,0,
2010-07-12, 01:16:05,VALID,1001.18,VALID,0,VALID,93.5544,VALID,0,VALID,23.7207,VALID,104,VALID,0,
2010-07-12, 01:17:05,VALID,1001.12,VALID,0,VALID,93.5468,VALID,0,VALID,23.6994,VALID,104,VALID,0,
2010-07-12, 01:18:05,VALID,1001.12,VALID,0,VALID,93.5773,VALID,0,VALID,23.7207,VALID,104,VALID,0,
2010-07-12, 01:19:05,VALID,1001.11,VALID,0,VALID,93.5468,VALID,0,VALID,23.6817,VALID,104,VALID,0,
2010-07-12, 01:20:05,VALID,1001.13,VALID,0,VALID,93.5086,VALID,0,VALID,23.6427,VALID,91,VALID,0.744531,
2010-07-12, 01:21:05,VALID,1001.08,VALID,0,VALID,93.4705,VALID,0,VALID,23.5841,VALID,92,VALID,0.830078,
2010-07-12, 01:22:05,VALID,1001.08,VALID,0,VALID,93.44,VALID,0,VALID,23.5628,VALID,92,VALID,0.673828,
2010-07-12, 01:23:05,VALID,1001.04,VALID,0,VALID,93.4247,VALID,0,VALID,23.5646,VALID,92,VALID,0.594141,
2010-07-12, 01:24:05,VALID,1001,VALID,0,VALID,93.3789,VALID,0,VALID,23.5451,VALID,94,VALID,0.63125,
2010-07-12, 01:25:05,VALID,1000.98,VALID,0,VALID,93.356,VALID,0,VALID,23.5451,VALID,117,VALID,0.751953,
2010-07-12, 01:26:05,VALID,1000.98,VALID,0,VALID,93.2797,VALID,0,VALID,23.5061,VALID,117,VALID,0.666797,
2010-07-12, 01:27:05,VALID,1000.95,VALID,0,VALID,93.295,VALID,0,VALID,23.5043,VALID,118,VALID,0.600781,
2010-07-12, 01:28:05,VALID,1000.94,VALID,0,VALID,93.2492,VALID,0,VALID,23.5451,VALID,136,VALID,0.730078,
2010-07-12, 01:29:05,VALID,1000.95,VALID,0,VALID,93.1653,VALID,0,VALID,23.5061,VALID,137,VALID,0.785937,
2010-07-12, 01:30:05,VALID,1000.94,VALID,0,VALID,93.0585,VALID,0,VALID,23.5043,VALID,144,VALID,0.971094,
2010-07-12, 01:31:05,VALID,1000.94,VALID,0,VALID,92.8372,VALID,0,VALID,23.5451,VALID,148,VALID,1.15742,
2010-07-12, 01:32:05,VALID,1000.94,VALID,0,VALID,92.2421,VALID,0,VALID,23.5256,VALID,149,VALID,1.21953,
2010-07-12, 01:33:05,VALID,1000.91,VALID,0,VALID,91.8454,VALID,0,VALID,23.5841,VALID,147,VALID,1.47578,
2010-07-12, 01:34:05,VALID,1000.88,VALID,0,VALID,91.4868,VALID,0,VALID,23.6036,VALID,146,VALID,1.10312,
2010-07-12, 01:35:05,VALID,1000.9,VALID,0,VALID,91.2884,VALID,0,VALID,23.6409,VALID,154,VALID,1.23125,
2010-07-12, 01:36:05,VALID,1000.85,VALID,0,VALID,91.2045,VALID,0,VALID,23.6409,VALID,160,VALID,0.869922,
2010-07-12, 01:37:05,VALID,1000.83,VALID,0,VALID,91.2121,VALID,0,VALID,23.6817,VALID,185,VALID,1.27617,
2010-07-12, 01:38:05,VALID,1000.79,VALID,0,VALID,91.2426,VALID,0,VALID,23.7207,VALID,185,VALID,1.06289,
2010-07-12, 01:39:05,VALID,1000.8,VALID,0,VALID,91.1206,VALID,0,VALID,23.7402,VALID,184,VALID,0.853516,
2010-07-12, 01:40:05,VALID,1000.74,VALID,0,VALID,90.884,VALID,0,VALID,23.7189,VALID,168,VALID,0.880469,
2010-07-12, 01:41:05,VALID,1000.74,VALID,0,VALID,90.5865,VALID,0,VALID,23.7402,VALID,182,VALID,0.876562,
2010-07-12, 01:42:05,VALID,1000.7,VALID,0,VALID,90.0219,VALID,0,VALID,23.7597,VALID,196,VALID,0.536719,
2010-07-12, 01:43:05,VALID,1000.73,VALID,0,VALID,89.7091,VALID,0,VALID,23.7597,VALID,196,VALID,0.157031,
2010-07-12, 01:44:05,VALID,1000.71,VALID,0,VALID,89.7472,VALID,0,VALID,23.7402,VALID,196,VALID,0,
2010-07-12, 01:45:05,VALID,1000.7,VALID,0,VALID,89.8998,VALID,0,VALID,23.7012,VALID,204,VALID,0,
2010-07-12, 01:46:05,VALID,1000.69,VALID,0,VALID,89.6786,VALID,0,VALID,23.6427,VALID,337,VALID,0,
2010-07-12, 01:47:05,VALID,1000.71,VALID,0,VALID,90.144,VALID,0,VALID,23.5451,VALID,353,VALID,0.916406,
2010-07-12, 01:48:05,VALID,1000.7,VALID,0,VALID,90.2126,VALID,0,VALID,23.4671,VALID,356,VALID,1.04727,
2010-07-12, 01:49:05,VALID,1000.73,VALID,0,VALID,90.3271,VALID,0,VALID,23.3695,VALID,356,VALID,0.917188,
2010-07-12, 01:50:05,VALID,1000.74,VALID,0,VALID,90.4339,VALID,0,VALID,23.2719,VALID,356,VALID,0.577344,
2010-07-12, 01:51:05,VALID,1000.77,VALID,0,VALID,90.8688,VALID,0,VALID,23.2134,VALID,7,VALID,0.734766,
2010-07-12, 01:52:05,VALID,1000.77,VALID,0,VALID,91.3723,VALID,0,VALID,23.1531,VALID,29,VALID,0.705859,
2010-07-12, 01:53:05,VALID,1000.73,VALID,0,VALID,91.7691,VALID,0,VALID,23.2134,VALID,29,VALID,0.741406,
2010-07-12, 01:54:05,VALID,1000.73,VALID,0,VALID,91.9217,VALID,0,VALID,23.2524,VALID,62,VALID,0.736328,
2010-07-12, 01:55:05,VALID,1000.75,VALID,0,VALID,91.6851,VALID,0,VALID,23.2719,VALID,87,VALID,0.882813,
2010-07-12, 01:56:05,VALID,1000.71,VALID,0,VALID,91.5402,VALID,0,VALID,23.311,VALID,87,VALID,0.769531,
2010-07-12, 01:57:05,VALID,1000.73,VALID,0,VALID,91.3113,VALID,0,VALID,23.35,VALID,87,VALID,0.560547,
2010-07-12, 01:58:04,VALID,1000.71,VALID,0,VALID,91.1358,VALID,0,VALID,23.389,VALID,87,VALID,0.535937,
2010-07-12, 01:59:04,VALID,1000.72,VALID,0,VALID,91.0443,VALID,0,VALID,23.3677,VALID,87,VALID,0.567969,
2010-07-12, 02:00:04,VALID,1000.74,VALID,0,VALID,90.8764,VALID,0,VALID,23.389,VALID,87,VALID,0.549219,
2010-07-12, 02:01:04,VALID,1000.74,VALID,0,VALID,90.9527,VALID,0,VALID,23.3695,VALID,87,VALID,0.603125,
2010-07-12, 02:02:04,VALID,1000.73,VALID,0,VALID,91.0519,VALID,0,VALID,23.3482,VALID,87,VALID,0.459375,
2010-07-12, 02:03:04,VALID,1000.71,VALID,0,VALID,91.3342,VALID,0,VALID,23.35,VALID,87,VALID,0.440234,
2010-07-12, 02:04:04,VALID,1000.71,VALID,0,VALID,91.6088,VALID,0,VALID,23.35,VALID,87,VALID,0.0402344,
2010-07-12, 02:05:04,VALID,1000.7,VALID,0,VALID,91.7843,VALID,0,VALID,23.35,VALID,87,VALID,0,
2010-07-12, 02:06:04,VALID,1000.65,VALID,0,VALID,91.8454,VALID,0,VALID,23.389,VALID,87,VALID,0,
2010-07-12, 02:07:04,VALID,1000.66,VALID,0,VALID,91.792,VALID,0,VALID,23.389,VALID,87,VALID,0,
2010-07-12, 02:08:04,VALID,1000.62,VALID,0,VALID,91.7157,VALID,0,VALID,23.3695,VALID,87,VALID,0,
2010-07-12, 02:09:04,VALID,1000.64,VALID,0,VALID,91.7004,VALID,0,VALID,23.3695,VALID,87,VALID,0,
2010-07-12, 02:10:04,VALID,1000.65,VALID,0,VALID,91.7462,VALID,0,VALID,23.3482,VALID,87,VALID,0,
2010-07-12, 02:11:04,VALID,1000.64,VALID,0,VALID,91.7538,VALID,0,VALID,23.3305,VALID,87,VALID,0,
2010-07-12, 02:12:04,VALID,1000.62,VALID,0,VALID,91.6623,VALID,0,VALID,23.311,VALID,87,VALID,0,
2010-07-12, 02:13:04,VALID,1000.61,VALID,0,VALID,91.7233,VALID,0,VALID,23.2524,VALID,87,VALID,0,
2010-07-12, 02:14:04,VALID,1000.6,VALID,0,VALID,91.6851,VALID,0,VALID,23.1939,VALID,87,VALID,0,
2010-07-12, 02:15:04,VALID,1000.58,VALID,0,VALID,91.8377,VALID,0,VALID,23.1354,VALID,87,VALID,0,
2010-07-12, 02:16:04,VALID,1000.6,VALID,0,VALID,91.9903,VALID,0,VALID,23.1141,VALID,87,VALID,0,
2010-07-12, 02:17:04,VALID,1000.59,VALID,0,VALID,92.1582,VALID,0,VALID,23.0964,VALID,87,VALID,0,
2010-07-12, 02:18:04,VALID,1000.56,VALID,0,VALID,92.3184,VALID,0,VALID,23.0964,VALID,87,VALID,0,
2010-07-12, 02:19:04,VALID,1000.57,VALID,0,VALID,92.4405,VALID,0,VALID,23.0769,VALID,87,VALID,0,
2010-07-12, 02:20:04,VALID,1000.55,VALID,0,VALID,92.6617,VALID,0,VALID,23.0751,VALID,87,VALID,0,
2010-07-12, 02:21:04,VALID,1000.56,VALID,0,VALID,92.7609,VALID,0,VALID,23.0964,VALID,87,VALID,0,
2010-07-12, 02:22:04,VALID,1000.58,VALID,0,VALID,92.8448,VALID,0,VALID,23.0751,VALID,87,VALID,0,
2010-07-12, 02:23:04,VALID,1000.54,VALID,0,VALID,92.8677,VALID,0,VALID,23.0769,VALID,87,VALID,0,
2010-07-12, 02:24:04,VALID,1000.54,VALID,0,VALID,92.9059,VALID,0,VALID,23.0573,VALID,87,VALID,0,
2010-07-12, 02:25:04,VALID,1000.54,VALID,0,VALID,92.9364,VALID,0,VALID,23.0573,VALID,87,VALID,0,
2010-07-12, 02:26:04,VALID,1000.53,VALID,0,VALID,93.0051,VALID,0,VALID,23.0573,VALID,87,VALID,0,
2010-07-12, 02:27:04,VALID,1000.48,VALID,0,VALID,93.0737,VALID,0,VALID,23.0556,VALID,87,VALID,0,
2010-07-12, 02:28:04,VALID,1000.49,VALID,0,VALID,93.1348,VALID,0,VALID,23.0964,VALID,87,VALID,0,
2010-07-12, 02:29:04,VALID,1000.46,VALID,0,VALID,93.2034,VALID,0,VALID,23.1159,VALID,87,VALID,0,
2010-07-12, 02:30:04,VALID,1000.43,VALID,0,VALID,93.2645,VALID,0,VALID,23.1159,VALID,87,VALID,0,
2010-07-12, 02:31:04,VALID,1000.42,VALID,0,VALID,93.2721,VALID,0,VALID,23.0964,VALID,87,VALID,0,
2010-07-12, 02:32:04,VALID,1000.42,VALID,0,VALID,93.295,VALID,0,VALID,23.0769,VALID,87,VALID,0,
2010-07-12, 02:33:04,VALID,1000.38,VALID,0,VALID,93.3255,VALID,0,VALID,23.0964,VALID,87,VALID,0,
2010-07-12, 02:34:04,VALID,1000.4,VALID,0,VALID,93.3789,VALID,0,VALID,23.0964,VALID,87,VALID,0,
2010-07-12, 02:35:04,VALID,1000.41,VALID,0,VALID,93.44,VALID,0,VALID,23.1159,VALID,87,VALID,0,
2010-07-12, 02:36:04,VALID,1000.39,VALID,0,VALID,93.4934,VALID,0,VALID,23.1354,VALID,87,VALID,0,
2010-07-12, 02:37:04,VALID,1000.41,VALID,0,VALID,93.562,VALID,0,VALID,23.1744,VALID,87,VALID,0,
2010-07-12, 02:38:04,VALID,1000.38,VALID,0,VALID,93.5697,VALID,0,VALID,23.1939,VALID,87,VALID,0,
2010-07-12, 02:39:04,VALID,1000.38,VALID,0,VALID,93.5315,VALID,0,VALID,23.0946,VALID,87,VALID,0,
2010-07-12, 02:40:04,VALID,1000.38,VALID,0,VALID,93.5468,VALID,0,VALID,23.0573,VALID,87,VALID,0,
2010-07-12, 02:41:04,VALID,1000.37,VALID,0,VALID,93.5086,VALID,0,VALID,22.9971,VALID,87,VALID,0,
2010-07-12, 02:42:04,VALID,1000.38,VALID,0,VALID,93.5086,VALID,0,VALID,22.9776,VALID,87,VALID,0,
2010-07-12, 02:43:04,VALID,1000.36,VALID,0,VALID,93.5544,VALID,0,VALID,22.9581,VALID,87,VALID,0,
2010-07-12, 02:44:04,VALID,1000.41,VALID,0,VALID,93.5773,VALID,0,VALID,22.9793,VALID,87,VALID,0,
2010-07-12, 02:45:04,VALID,1000.41,VALID,0,VALID,93.5697,VALID,0,VALID,22.9598,VALID,87,VALID,0,
2010-07-12, 02:46:04,VALID,1000.41,VALID,0,VALID,93.562,VALID,0,VALID,22.9208,VALID,87,VALID,0,
2010-07-12, 02:47:04,VALID,1000.44,VALID,0,VALID,93.5544,VALID,0,VALID,22.8818,VALID,87,VALID,0,
2010-07-12, 02:48:04,VALID,1000.45,VALID,0,VALID,93.5544,VALID,0,VALID,22.8427,VALID,87,VALID,0,
2010-07-12, 02:49:04,VALID,1000.45,VALID,0,VALID,93.5773,VALID,0,VALID,22.8232,VALID,87,VALID,0,
2010-07-12, 02:50:04,VALID,1000.44,VALID,0,VALID,93.5697,VALID,0,VALID,22.8232,VALID,87,VALID,0,
2010-07-12, 02:51:04,VALID,1000.42,VALID,0,VALID,93.6154,VALID,0,VALID,22.8232,VALID,87,VALID,0,
2010-07-12, 02:52:04,VALID,1000.44,VALID,0,VALID,93.6154,VALID,0,VALID,22.8037,VALID,87,VALID,0,
2010-07-12, 02:53:04,VALID,1000.44,VALID,0,VALID,93.6307,VALID,0,VALID,22.7825,VALID,87,VALID,0,
2010-07-12, 02:54:04,VALID,1000.45,VALID,0,VALID,93.6307,VALID,0,VALID,22.8037,VALID,87,VALID,0,
2010-07-12, 02:55:04,VALID,1000.48,VALID,0,VALID,93.6231,VALID,0,VALID,22.7842,VALID,87,VALID,0,
2010-07-12, 02:56:04,VALID,1000.49,VALID,0,VALID,93.6917,VALID,0,VALID,22.7842,VALID,87,VALID,0,
2010-07-12, 02:57:04,VALID,1000.48,VALID,0,VALID,93.6917,VALID,0,VALID,22.8037,VALID,87,VALID,0,
2010-07-12, 02:58:04,VALID,1000.48,VALID,0,VALID,93.6841,VALID,0,VALID,22.8232,VALID,87,VALID,0,
2010-07-12, 02:59:04,VALID,1000.5,VALID,0,VALID,93.7146,VALID,0,VALID,22.8037,VALID,87,VALID,0,
2010-07-12, 03:00:04,VALID,1000.52,VALID,0,VALID,93.7375,VALID,0,VALID,22.8232,VALID,87,VALID,0,
2010-07-12, 03:01:04,VALID,1000.54,VALID,0,VALID,93.7604,VALID,0,VALID,22.8427,VALID,87,VALID,0,
2010-07-12, 03:02:04,VALID,1000.56,VALID,0,VALID,93.7451,VALID,0,VALID,22.8232,VALID,87,VALID,0,
2010-07-12, 03:03:04,VALID,1000.56,VALID,0,VALID,93.7375,VALID,0,VALID,22.7647,VALID,87,VALID,0,
2010-07-12, 03:04:04,VALID,1000.58,VALID,0,VALID,93.7528,VALID,0,VALID,22.7452,VALID,87,VALID,0,
2010-07-12, 03:05:04,VALID,1000.62,VALID,0,VALID,93.7528,VALID,0,VALID,22.7257,VALID,87,VALID,0,
2010-07-12, 03:06:04,VALID,1000.62,VALID,0,VALID,93.7833,VALID,0,VALID,22.7257,VALID,87,VALID,0,
2010-07-12, 03:07:04,VALID,1000.64,VALID,0,VALID,93.7757,VALID,0,VALID,22.7062,VALID,87,VALID,0,
2010-07-12, 03:08:04,VALID,1000.62,VALID,0,VALID,93.8214,VALID,0,VALID,22.7257,VALID,87,VALID,0,
2010-07-12, 03:09:04,VALID,1000.64,VALID,0,VALID,93.8367,VALID,0,VALID,22.7647,VALID,87,VALID,0,
2010-07-12, 03:10:04,VALID,1000.62,VALID,0,VALID,93.852,VALID,0,VALID,22.7452,VALID,87,VALID,0,
2010-07-12, 03:11:04,VALID,1000.67,VALID,0,VALID,93.8596,VALID,0,VALID,22.7452,VALID,87,VALID,0,
2010-07-12, 03:12:04,VALID,1000.66,VALID,0,VALID,93.8672,VALID,0,VALID,22.7435,VALID,87,VALID,0,
2010-07-12, 03:13:04,VALID,1000.64,VALID,0,VALID,93.8596,VALID,0,VALID,22.7257,VALID,87,VALID,0,
2010-07-12, 03:14:04,VALID,1000.64,VALID,0,VALID,93.8748,VALID,0,VALID,22.7062,VALID,87,VALID,0,
2010-07-12, 03:15:04,VALID,1000.64,VALID,0,VALID,93.913,VALID,0,VALID,22.7257,VALID,87,VALID,0,
2010-07-12, 03:16:04,VALID,1000.64,VALID,0,VALID,93.9206,VALID,0,VALID,22.7647,VALID,87,VALID,0,
2010-07-12, 03:17:04,VALID,1000.63,VALID,0,VALID,93.9359,VALID,0,VALID,22.7842,VALID,87,VALID,0,
2010-07-12, 03:18:04,VALID,1000.62,VALID,0,VALID,93.9359,VALID,0,VALID,22.7452,VALID,87,VALID,0,
2010-07-12, 03:19:04,VALID,1000.62,VALID,0,VALID,93.913,VALID,0,VALID,22.7062,VALID,87,VALID,0,
2010-07-12, 03:20:04,VALID,1000.64,VALID,0,VALID,93.9283,VALID,0,VALID,22.7062,VALID,87,VALID,0,
2010-07-12, 03:21:04,VALID,1000.62,VALID,0,VALID,93.9588,VALID,0,VALID,22.7257,VALID,87,VALID,0,
2010-07-12, 03:22:04,VALID,1000.66,VALID,0,VALID,93.9664,VALID,0,VALID,22.7452,VALID,87,VALID,0,
2010-07-12, 03:23:04,VALID,1000.65,VALID,0,VALID,93.9359,VALID,0,VALID,22.6867,VALID,87,VALID,0,
2010-07-12, 03:24:04,VALID,1000.65,VALID,0,VALID,93.9359,VALID,0,VALID,22.6477,VALID,87,VALID,0,
2010-07-12, 03:25:04,VALID,1000.66,VALID,0,VALID,93.9664,VALID,0,VALID,22.6477,VALID,87,VALID,0,
2010-07-12, 03:26:04,VALID,1000.65,VALID,0,VALID,94.0045,VALID,0,VALID,22.7062,VALID,87,VALID,0,
2010-07-12, 03:27:04,VALID,1000.62,VALID,0,VALID,94.0198,VALID,0,VALID,22.7842,VALID,87,VALID,0,
2010-07-12, 03:28:04,VALID,1000.59,VALID,0,VALID,94.0274,VALID,0,VALID,22.7842,VALID,87,VALID,0,
2010-07-12, 03:29:04,VALID,1000.57,VALID,0,VALID,94.0198,VALID,0,VALID,22.7842,VALID,87,VALID,0,
2010-07-12, 03:30:04,VALID,1000.54,VALID,0,VALID,94.0198,VALID,0,VALID,22.7045,VALID,87,VALID,0,
2010-07-12, 03:31:04,VALID,1000.53,VALID,0,VALID,94.0351,VALID,0,VALID,22.7045,VALID,87,VALID,0,
2010-07-12, 03:32:04,VALID,1000.52,VALID,0,VALID,94.0274,VALID,0,VALID,22.7062,VALID,87,VALID,0,
2010-07-12, 03:33:04,VALID,1000.53,VALID,0,VALID,94.0122,VALID,0,VALID,22.7274,VALID,87,VALID,0,
2010-07-12, 03:34:04,VALID,1000.54,VALID,0,VALID,94.0732,VALID,0,VALID,22.7257,VALID,78,VALID,0,
2010-07-12, 03:35:04,VALID,1000.55,VALID,0,VALID,94.058,VALID,0,VALID,22.7647,VALID,70,VALID,0,
2010-07-12, 03:36:04,VALID,1000.57,VALID,0,VALID,94.0656,VALID,0,VALID,22.7647,VALID,70,VALID,0,
2010-07-12, 03:37:04,VALID,1000.59,VALID,0,VALID,94.0503,VALID,0,VALID,22.7257,VALID,70,VALID,0,
2010-07-12, 03:38:04,VALID,1000.6,VALID,0,VALID,94.0503,VALID,0,VALID,22.7062,VALID,70,VALID,0,
2010-07-12, 03:39:04,VALID,1000.6,VALID,0,VALID,94.0656,VALID,0,VALID,22.6494,VALID,70,VALID,0,
2010-07-12, 03:40:04,VALID,1000.6,VALID,0,VALID,94.0656,VALID,0,VALID,22.5892,VALID,70,VALID,0,
2010-07-12, 03:41:04,VALID,1000.56,VALID,0,VALID,94.0503,VALID,0,VALID,22.5306,VALID,70,VALID,0,
2010-07-12, 03:42:04,VALID,1000.56,VALID,0,VALID,94.0198,VALID,0,VALID,22.5111,VALID,59,VALID,0.323047,
2010-07-12, 03:43:04,VALID,1000.53,VALID,0,VALID,94.0732,VALID,0,VALID,22.4704,VALID,45,VALID,1.18984,
2010-07-12, 03:44:04,VALID,1000.54,VALID,0,VALID,94.0503,VALID,0,VALID,22.4543,VALID,39,VALID,0.725,
2010-07-12, 03:45:04,VALID,1000.53,VALID,0,VALID,94.0427,VALID,0,VALID,22.3746,VALID,39,VALID,0.650391,
2010-07-12, 03:46:04,VALID,1000.51,VALID,0,VALID,94.058,VALID,0,VALID,22.3161,VALID,39,VALID,0.0566406,
2010-07-12, 03:47:04,VALID,1000.51,VALID,0,VALID,94.058,VALID,0,VALID,22.2771,VALID,39,VALID,0,
2010-07-12, 03:48:04,VALID,1000.5,VALID,0,VALID,94.0503,VALID,0,VALID,22.2169,VALID,39,VALID,0,
2010-07-12, 03:49:04,VALID,1000.49,VALID,0,VALID,94.0503,VALID,0,VALID,22.2186,VALID,39,VALID,0.760938,
2010-07-12, 03:50:04,VALID,1000.49,VALID,0,VALID,94.058,VALID,0,VALID,22.1795,VALID,39,VALID,0.790234,
2010-07-12, 03:51:04,VALID,1000.51,VALID,0,VALID,94.0732,VALID,0,VALID,22.2007,VALID,39,VALID,0.666797,
2010-07-12, 03:52:04,VALID,1000.48,VALID,0,VALID,94.0732,VALID,0,VALID,22.1795,VALID,39,VALID,0.342969,
2010-07-12, 03:53:04,VALID,1000.49,VALID,0,VALID,94.0885,VALID,0,VALID,22.1405,VALID,39,VALID,0.450391,
2010-07-12, 03:54:04,VALID,1000.48,VALID,0,VALID,94.119,VALID,0,VALID,22.1795,VALID,13,VALID,0.771094,
2010-07-12, 03:55:04,VALID,1000.44,VALID,0,VALID,94.1037,VALID,0,VALID,22.2381,VALID,11,VALID,0.383984,